www.pogodaiklimat.ru

Погода и климат >> Архив погоды >> Мали >> Kita


ПОГОДА в Kita

  • Прогноз погоды в Kita
  • Монитор погоды в Kita
  • Климат города

АРХИВ ПОГОДЫ в Kita

Время (UTC), дата Ветер
(напр.,м/с)
 
Видим.   Явления Облачность Т
(С)
Тd
(С)
f
(%)
Тe
(С)
Тes
(С)
Комфортность P
(гПа)
Po
(гПа)
Тmin
(С)
Tmax
(С)
R
(мм)
R24
(мм)
S
(см)
21 12.08 штиль 0 10 км 4/1 900 м
[Sc Ac lent Ci sp]
+28.5 +25.4 83 +42 +42 опасность
перегрева
1012.6 975.5
00 13.08 штиль 0 10 км 3/0
[Ac lent Ci sp]
+27.3 +24.4 84 +38 +38 очень
душно
1012.9 975.8
03 13.08 штиль 0 10 км 3/0
[Ac lent Ci sp]
+26.4 +24.2 88 +37 +37 очень
душно
1011.6 974.7
06 13.08 штиль 0 10 км 6/1 900 м
[Sc Ac lent Ci sp]
+25.0 +23.8 93 +34 +34 очень
душно
1011.5 974.5 +24.5
09 13.08 штиль 0 10 км 9/1 900 м
[Sc Ac lent]
+26.7 +24.8 89 +38 +41 очень
душно
1012.9 975.8
12 13.08 штиль 0 10 км 9/4 900 м
[Sc Ac lent Ci sp]
+31.0 +25.4 72 +45 +55 опасность
перегрева
1012.5 975.6
15 13.08 штиль 0 10 км 9/4 900 м
[Sc Ac lent Ci sp]
+32.6 +25.5 66 +47 +54 опасность
перегрева
1009.9 973.3
18 13.08 СВ 3 10 км гроза без осадков {дождь} 9/4 900 м
[Cb cap Ac As]
+26.5 +24.3 88 +37 +37 очень
душно
1012.3 975.0 +33.5 4
21 13.08 штиль 0 10 км {гроза, дождь} 9/4 900 м
[Sc Ac As]
+24.0 +22.5 91 +31 +31 очень
душно
1012.0 974.6
00 14.08 штиль 0 10 км {дождь} 10/3 900 м
[Sc Ac As]
+23.6 +21.8 90 +30 +30 очень
душно
1012.8 975.7 7
03 14.08 штиль 0 10 км 9/3 900 м
[Sc Ac As Ci sp]
+23.8 +22.6 93 +31 +31 очень
душно
1011.0 974.0
06 14.08 штиль 0 10 км 3/0
[Ci sp]
+24.0 +22.5 91 +31 +31 очень
душно
1011.4 974.0 +22.7 11
09 14.08 Ю 2 10 км 6/3 900 м
[Sc Ac lent Ci sp]
+26.5 +23.6 84 +36 +40 очень
душно
1012.8 975.4
12 14.08 З 2 10 км 9/8 900 м
[Sc Ac lent]
+29.5 +24.1 73 +41 +44 опасность
перегрева
1012.3 975.1
15 14.08 СЗ 2 10 км 8/5 900 м
[Sc Ac lent Ci sp]
+31.5 +24.8 68 +45 +50 опасность
перегрева
1010.7 973.8
18 14.08 СЗ 2 10 км 8/4 900 м
[Sc Ac lent Ci sp]
+31.0 +25.1 71 +45 +45 опасность
перегрева
1009.2 972.2 +32.1
21 14.08 штиль 0 10 км зарница {гроза} 8/4 900 м
[Cb cap Ac lent Ci sp]
+28.5 +25.0 81 +41 +41 опасность
перегрева
1012.1 975.0
00 15.08 штиль 0 10 км {гроза} 6/4 900 м
[Sc Ac lent Ci sp]
+25.5 +21.2 77 +32 +32 очень
душно
1011.4 974.4
03 15.08 штиль 0 10 км 4/1 900 м
[Sc Ac lent Ci sp]
+24.7 +21.4 82 +31 +31 очень
душно
1009.9 973.1
06 15.08 штиль 0 10 км гроза без осадков 6/3 900 м
[Cb cap Ac lent Ci sp]
+23.5 +21.7 90 +30 +30 очень
душно
1011.1 974.0 +22.9
09 15.08 Ю 3 10 км 9/4 900 м
[Sc Ac As]
+25.0 +22.8 88 +33 +35 очень
душно
1012.9 975.7
12 15.08 штиль 0 10 км {гроза} 9/4 900 м
[Sc Ac As]
+26.3 +22.8 81 +35 +42 очень
душно
1011.8 974.5
15 15.08 ЮВ 2 10 км 9/5 900 м
[Sc Ac As]
+24.0 +21.1 84 +30 +34 очень
душно
1012.8 975.3
18 15.08 штиль 0 10 км слабый дождь {гроза} 10/5 900 м
[Sc Ac As]
+22.7 +21.6 94 +30 +31 очень
душно
1011.3 973.9 +28.5 12
21 15.08 штиль 0 10 км {дождь} 9/4 600 м
[Sc Ac As]
+22.9 +21.8 94 +31 +31 очень
душно
1011.8 974.3
00 16.08 штиль 0 10 км {дождь} 4/3 600 м
[Frnb Ci sp]
+22.5 +21.7 95 +30 +30 очень
душно
1012.1 974.6 0.3
03 16.08 штиль 0 10 км 6/3 600 м
[Frnb Ac lent]
+22.2 +21.7 97 +29 +29 очень
душно
1012.1 974.5
06 16.08 штиль 0 10 км 8/3 900 м
[Sc Ac As Ci sp]
+22.3 +21.7 96 +29 +29 очень
душно
1013.1 975.4 +21.5 12
09 16.08 ЮВ 2 10 км 8/4 900 м
[Sc Ac lent Ci sp]
+25.5 +23.3 88 +34 +38 очень
душно
1014.3 976.7
12 16.08 ЮВ 3 10 км 6/4 900 м
[Sc Ac lent Ci sp]
+28.6 +23.1 72 +38 +47 очень
душно
1013.8 976.4
15 16.08 Ю 2 10 км 8/5 900 м
[Sc Ac lent Ci sp]
+30.9 +23.7 66 +42 +47 опасность
перегрева
1011.3 974.1
18 16.08 штиль 0 10 км 8/3 900 м
[Sc Ac lent Ci sp]
+30.0 +23.6 69 +41 +42 опасность
перегрева
1010.9 973.8 +31.1
21 16.08 штиль 0 10 км 6/1 900 м
[Sc Ac lent Ci sp]
+27.7 +25.3 87 +40 +40 очень
душно
1013.0 975.8
00 17.08 штиль 0 10 км 4/1 900 м
[Sc Ac lent Ci sp]
+26.5 +24.8 90 +38 +38 очень
душно
1013.0 975.9
03 17.08 штиль 0 10 км 4/1 900 м
[Sc Ac lent Ci sp]
+25.6 +24.6 94 +36 +36 очень
душно
1011.4 974.4
06 17.08 штиль 0 10 км 1/0
[Ci sp]
+25.0 +23.7 93 +34 +34 очень
душно
1011.7 974.5 +24.4
09 17.08 штиль 0 10 км 3/3 900 м
[Sc]
+27.2 +23.6 81 +37 +45 очень
душно
1012.7 975.6
12 17.08 штиль 0 10 км 3/3 900 м
[Sc]
+31.0 +23.9 66 +43 +63 опасность
перегрева
1011.4 974.5
15 17.08 СЗ 2 10 км 8/4 900 м
[Sc Ac As Ci sp]
+33.0 +25.4 64 +47 +53 опасность
перегрева
1009.0 972.2
18 17.08 СЗ 2 10 км 5/3 900 м
[Sc Ac lent Ci sp]
+32.0 +25.2 67 +46 +46 опасность
перегрева
1009.1 972.2 +33.5
21 17.08 штиль 0 10 км 4/1 900 м
[Sc Ac lent Ci sp]
+29.3 +24.9 77 +42 +42 опасность
перегрева
1009.8 973.0
00 18.08 ЮЗ 3 10 км 5/3 900 м
[Sc Ac lent Ci sp]
+27.5 +24.4 83 +39 +39 очень
душно
1008.3 971.6
03 18.08 З 4 10 км 6/3 900 м
[Sc Ac lent Ci sp]
+27.0 +23.7 82 +37 +37 очень
душно
1007.1 970.5
06 18.08 З 4 10 км 8/5 600 м
[Frnb Ac lent Ci sp]
+26.3 +23.1 83 +35 +35 очень
душно
1006.8 970.1 +25.7
09 18.08 З 3 10 км 8/5 600 м
[Frnb Ac lent Ci sp]
+27.5 +23.9 81 +38 +40 очень
душно
1008.2 971.3
12 18.08 ЮЗ 2 10 км 8/3 900 м
[Sc Ac lent Ci sp]
+31.5 +24.4 66 +44 +53 опасность
перегрева
1007.2 970.5
15 18.08 ЮЗ 3 10 км 8/1 900 м
[Sc Ac lent Ci sp]
+32.7 +23.8 60 +44 +51 опасность
перегрева
1004.0 967.4
18 18.08 ЮЗ 2 10 км 6/1 900 м
[Sc Ac lent Ci sp]
+31.4 +22.2 58 +40 +41 очень
душно
1004.7 968.0 +32.7
21 18.08 ЮЗ 2 10 км 6/1 900 м
[Sc Ac lent Ci sp]
+29.0 +23.3 71 +39 +39 очень
душно
1008.4 971.5
00 19.08 ЮВ 2 10 км зарница {гроза} 8/4 900 м
[Cb cap Ac As Ci sp]
+26.9 +24.0 84 +37 +37 очень
душно
1014.2 977.2
03 19.08 ЮЗ 2 10 км {гроза} 5/3 900 м
[Sc Ac lent Ci sp]
+25.4 +22.6 85 +33 +33 очень
душно
1006.2 969.5
06 19.08 штиль 0 10 км 5/1 900 м
[Sc Ac lent Ci sp]
+24.5 +23.0 91 +32 +32 очень
душно
1008.3 971.4 +24.0
09 19.08 штиль 0 10 км 6/3 900 м
[Sc Ac lent Ci sp]
+27.0 +23.4 81 +37 +43 очень
душно
1010.1 973.3
12 19.08 ЮЗ 2 10 км 8/4 900 м
[Cu med, cong Ac lent Ci sp]
+30.5 +22.9 64 +40 +49 очень
душно
1009.8 973.0
15 19.08 ЮВ 3 10 км 8/4 900 м
[Cu med, cong Ac lent Ci sp]
+32.0 +22.7 58 +42 +47 опасность
перегрева
1007.6 970.8

 

Местоположение метеостанции Kita (Мали): широта 13.07 долгота -9.47 высота над уровнем моря 334 м.

В архиве по умолчанию представлена погода в Kita за последнюю неделю. Архивные данные за месяц целиком и за предыдущие месяцы, начиная с января 2011 года, Вы можете получить, выбрав интересующий диапазон дат из раскрывающегося списка и нажав кнопку "Ввод!".

Внимание! Время в таблицах - всемирное. Для получения местного времени необходимо прибавить поправку, которая в Kita равна 0 ч.

Смотрите также архив погоды в соседних городах и на ближайших метеорологических станциях:

Погода в Bamako (Мали) (175 км)
Погода в Kenieba (Мали) (192 км)
Погода в Nioro Du Sahel (Мали) (241 км)
Погода в Yelimane (Мали) (257 км)
Погода в Kayes (Мали) (260 км)
Погода в Bougouni (Мали) (282 км)
Погода в Kedougou (Сенегал) (302 км)
Погода в Nara (Мали) (332 км)
Погода в Segou (Мали) (361 км)
Погода в Aioun el Atrouss (Мавритания) (404 км)

Пояснения к столбцам:

Ветер - указаны скорость ветра в м/с - средняя за 10 мин, порывы в срок и между сроками (в фигурных скобках) и направление, откуда дует ветер: С - северный, СВ - северо-восточный, В - восточный, ЮВ - юго-восточный, Ю - южный, ЮЗ - юго-западный, З - западный, СЗ - северо-западный.
Видимость - горизонтальная дальность видимости в метрах или километрах. При видимости от 1 до 10 км при отсутствии осадков обычно наблюдается дымка, при ухудшении видимости до 1 км и менее - туман. В сухую погоду видимость может ухудшаться дымом, пылью или мглою.
Явления - указаны атмосферные явления, наблюдавшиеся в срок или в последний час перед сроком; фигурными скобками обозначены явления, наблюдавшиеся между сроками (за 1-3 часа до срока); квадратными скобками обозначены град или гололедные отложения с указанием их диаметра в мм.
Облачность - указаны через наклонную черту общая и нижняя облачность в баллах и высота нижней границы облаков в метрах; квадратными скобками обозначены формы облаков: Ci - перистые, Cs - перисто-слоистые, Cc - перисто-кучевые, Ac - высококучевые, As - высокослоистые, Sc - слоисто-кучевые, Ns - слоисто-дождевые, Cu - кучевые, Cb - кучево-дождевые. Подробнее классификацию облаков см. в Атласе облаков (PDF).
T - Температура воздуха - температура, измеренная на высоте 2 м над землей.
Td - Температура точки росы - температура, при понижении до которой содержащийся в воздухе водяной пар достигнет насыщения.
f - Относительная влажность воздуха - влажноcть воздуха, измеренная на высоте 2 м над землей.
Te - Эффективная температура - температура, которую ощущает одетый по сезону человек в тени. Характеристика душности погоды. При расчете учитывается влияние влажности воздуха и скорости ветра на теплоощущения человека.
Tes - Эффективная температура на солнце - температура, которую ощущает человек, с поправкой на солнечный нагрев. Характеристика знойности погоды. Зависит от высоты солнца над горизонтом, облачности и скорости ветра. Ночью, в пасмурную погоду, а также при ветре 12 м/с и более поправка равна нулю.
P - Атмосферное давление - приведенное к уровню моря атмосферное давление.
Po - Атмосферное давление - измеренное на уровне метеостанции атмосферное давление.
Tmin - Минимальная температура - минимум температуры воздуха на высоте 2 м над землей.
Tmax - Максимальная температура - максимум температуры воздуха на высоте 2 м над землей.
R - Количество осадков - Количество выпавших осадков за период времени, мм. При наведении курсора мыши на число - период времени, за который выпало указанное количество осадков.
R24 - Количество осадков - Количество выпавших осадков за 24 часа, мм.
S - Снежный покров - Высота снежного покрова, см. При наведении курсора мыши на число - состояние снежного покрова и степень покрытия местности в баллах.